Location: ?????
(30.2541°N, 31.0910°E)
Time: 13:47:01
(UTC+00:00)

Meteor 1-14 Rocket - Pass Details

Date: 27 September 2022
Orbit: 833 x 919 km, 81.3° (Epoch: 26 November)

Event Time Altitude Azimuth Distance (km) Brightness Sun altitude
Rises 01:56:02 0° 349° (NNW) 3,540 7.5 -24.5°
Reaches altitude 10° 01:58:32 10° 347° (NNW) 2,586 6.7 -24.0°
Maximum altitude 02:04:23 68° 265° (W) 953 4.2 -22.8°
Drops below altitude 10° 02:10:04 10° 183° (S) 2,517 6.5 -21.6°
Sets 02:12:29 0° 181° (S) 3,439 7.3 -21.1°
